User: anonymous   Login
Location: Unspecified
(0.0000°N, 0.0000°E)
Time: 01:05:22
(UTC+00:00)
Language:

ONEWEB-0131 - Orbit

View from above orbital plane
View from above orbital plane
View from above satellite
View from above satellite

Ground track
Ground track

The orbit is defined by the following mean orbital elements,

1 47277U          26145.54403841 +.00000000 +00000-0 -61137-3 0 00009
2 47277  87.8949 355.1756 0001744  85.1816 274.9512 13.12443041    04
Epoch (UTC): 25 May 2026 13:03:24
Eccentricity: 0.0001744
inclination: 87.8949°
perigee height: 1212 km
apogee height: 1215 km
right ascension of ascending node: 355.1756°
argument of perigee: 85.1816°
revolutions per day: 13.12443041
mean anomaly at epoch: 274.9512°

The dashed part of the orbit path shows where the satellite is in the earth's shadow,  

DLR